TimeMDT,TemperatureF,Dew PointF,Humidity,Sea Level PressureIn,VisibilityMPH,Wind Direction,Wind SpeedMPH,Gust SpeedMPH,PrecipitationIn,Events,Conditions,WindDirDegrees,DateUTC
12:53 AM,46.0,33.1,61,29.72,10.0,South,5.8,-,N/A,,Overcast,170,2012-10-21 06:53:00
1:53 AM,46.0,33.1,61,29.71,10.0,South,9.2,-,N/A,,Partly Cloudy,190,2012-10-21 07:53:00
2:53 AM,46.0,32.0,58,29.73,10.0,SSW,13.8,-,N/A,,Clear,200,2012-10-21 08:53:00
3:53 AM,45.0,30.9,58,29.74,10.0,SSW,9.2,-,N/A,,Clear,210,2012-10-21 09:53:00
4:53 AM,45.0,32.0,60,29.75,10.0,SSW,12.7,19.6,N/A,,Scattered Clouds,200,2012-10-21 10:53:00
5:53 AM,43.0,30.9,62,29.76,10.0,SSW,9.2,-,N/A,,Mostly Cloudy,210,2012-10-21 11:53:00
6:53 AM,42.1,30.9,65,29.78,10.0,South,8.1,-,N/A,,Overcast,180,2012-10-21 12:53:00
7:53 AM,42.1,30.9,65,29.80,10.0,SSW,9.2,-,N/A,,Mostly Cloudy,200,2012-10-21 13:53:00
8:53 AM,41.0,30.9,67,29.81,10.0,SSW,6.9,-,N/A,,Clear,210,2012-10-21 14:53:00
9:53 AM,43.0,30.9,62,29.82,10.0,SSW,8.1,-,N/A,,Clear,200,2012-10-21 15:53:00
10:53 AM,46.0,30.0,54,29.82,10.0,SSW,11.5,-,N/A,,Clear,200,2012-10-21 16:53:00
11:53 AM,48.0,28.0,46,29.82,10.0,SW,8.1,-,N/A,,Partly Cloudy,220,2012-10-21 17:53:00
12:53 PM,51.1,28.9,43,29.81,10.0,SSW,10.4,-,N/A,,Clear,210,2012-10-21 18:53:00
1:53 PM,51.1,28.0,41,29.79,10.0,SW,12.7,19.6,N/A,,Scattered Clouds,220,2012-10-21 19:53:00
2:53 PM,53.1,26.1,35,29.76,10.0,SSW,11.5,-,N/A,,Mostly Cloudy,210,2012-10-21 20:53:00
3:53 PM,52.0,26.1,37,29.77,10.0,SSW,10.4,-,N/A,,Mostly Cloudy,210,2012-10-21 21:53:00
4:53 PM,51.1,28.0,41,29.78,10.0,SSW,9.2,-,N/A,,Overcast,210,2012-10-21 22:53:00
5:53 PM,50.0,28.0,43,29.80,10.0,SSW,6.9,-,N/A,,Overcast,200,2012-10-21 23:53:00
6:53 PM,48.0,28.9,48,29.80,10.0,South,5.8,-,N/A,,Overcast,170,2012-10-22 00:53:00
7:53 PM,46.9,28.0,48,29.81,10.0,South,6.9,-,N/A,,Overcast,170,2012-10-22 01:53:00
8:53 PM,46.9,27.0,46,29.80,10.0,South,6.9,-,N/A,,Overcast,170,2012-10-22 02:53:00
9:53 PM,46.9,26.1,44,29.80,10.0,SSE,3.5,-,N/A,,Overcast,160,2012-10-22 03:53:00
10:53 PM,46.9,25.0,42,29.78,10.0,SSE,5.8,-,N/A,,Mostly Cloudy,160,2012-10-22 04:53:00
11:53 PM,39.9,25.0,55,29.80,10.0,Calm,Calm,-,N/A,,Clear,0,2012-10-22 05:53:00